Weather History for Albuquerque, NM

Change the Weather History Date:

Saturday, September 29, 2012

  Actual Average Record
Temperature  
Mean Temperature 69 °F 64 °F  
Max Temperature 79 °F 76 °F 90 °F (1979)
Min Temperature 58 °F 53 °F 34 °F (1917)
Degree Days  
Heating Degree Days 0 3  
Month to date heating degree days 8 23  
Since 1 July heating degree days 8 23  
Cooling Degree Days 4 2  
Month to date cooling degree days 195 155  
Year to date cooling degree days 1741 1312  
Growing Degree Days 18 (Base 50)    
Moisture  
Dew Point 44 °F    
Average Humidity 46    
Maximum Humidity 67    
Minimum Humidity 24    
Precipitation  
Precipitation T in 0.03 in 0.86 in (1904)
Month to date precipitation 0.44 1.04  
Year to date precipitation 5.23 7.32  
Snow  
Snow 0.00 in - - ()
Month to date snowfall 0.0  
Since 1 July snowfall 0.0  
Since 1 September snowfall 0.0  
Snow Depth 0.00 in    
Sea Level Pressure  
Sea Level Pressure 30.01 in    
Wind  
Wind Speed 8 mph (ENE)    
Max Wind Speed 21 mph    
Max Gust Speed 24 mph    
Visibility 10 miles    
Events Rain    
T = Trace of Precipitation, MM = Missing Value Source: NWS Daily Summary

Daily Weather History Graph

Daily Weather History Graph

Search for Another Location

Airport:

Trip Planner

Search our weather history database for the weather conditions in past years. The results will help you decide how hot, cold, wet, or windy it might be!

Date:

Astronomy

Sep. 29, 2012 Rise Set
Actual Time 7:00 AM MDT 6:52 PM MDT
Civil Twilight 6:34 AM MDT 7:17 PM MDT
Nautical Twilight 6:05 AM MDT 7:46 PM MDT
Astronomical Twilight 5:35 AM MDT 8:16 PM MDT
Moon 6:28 PM MDT (9/29) 6:33 AM MDT (9/29)
Length of Visible Light 12h 42m
Length of Day
11h 52m
Full, 100% of the Moon is Illuminated
Sep 29
Full
Sep 29
Full
Oct 8
Last Quarter
Oct 15
New
Oct 21
First Quarter

Hourly Weather History & Observations

Time (MDT) Temp. Dew Point Humidity Pressure Visibility Wind Dir Wind Speed Gust Speed Precip Events Conditions
12:52 AM 64.0 °F 45.0 °F 50% 30.00 in 10.0 mi East 9.2 mph - N/A   Overcast
1:52 AM 63.0 °F 45.0 °F 52% 30.00 in 10.0 mi ENE 11.5 mph - 0.00 in Rain Light Rain
2:52 AM 62.1 °F 45.0 °F 53% 30.01 in 10.0 mi East 16.1 mph - 0.00 in   Overcast
3:52 AM 60.1 °F 46.9 °F 62% 30.02 in 10.0 mi ESE 13.8 mph - N/A   Overcast
4:52 AM 60.1 °F 48.0 °F 64% 30.02 in 10.0 mi East 17.3 mph - N/A   Mostly Cloudy
5:52 AM 59.0 °F 48.0 °F 67% 30.04 in 10.0 mi East 9.2 mph - N/A   Mostly Cloudy
6:52 AM 59.0 °F 46.9 °F 64% 30.06 in 10.0 mi NE 3.5 mph - N/A   Scattered Clouds
7:52 AM 57.9 °F 46.9 °F 67% 30.08 in 10.0 mi North 8.1 mph - N/A   Mostly Cloudy
8:52 AM 61.0 °F 48.0 °F 62% 30.09 in 10.0 mi North 4.6 mph - N/A   Scattered Clouds
9:52 AM 64.0 °F 48.0 °F 56% 30.09 in 10.0 mi North 5.8 mph - N/A   Scattered Clouds
10:52 AM 66.0 °F 48.9 °F 54% 30.07 in 10.0 mi NW 3.5 mph - N/A   Scattered Clouds
11:52 AM 68.0 °F 48.9 °F 50% 30.05 in 10.0 mi North 4.6 mph - N/A   Scattered Clouds
12:52 PM 71.1 °F 48.0 °F 44% 30.02 in 10.0 mi Variable 4.6 mph - N/A   Scattered Clouds
1:52 PM 73.0 °F 42.1 °F 33% 29.97 in 10.0 mi Calm Calm - N/A   Scattered Clouds
2:52 PM 77.0 °F 41.0 °F 28% 29.94 in 10.0 mi North 6.9 mph - N/A   Scattered Clouds
3:52 PM 77.0 °F 39.2 °F 26% 30.13 in 10.0 mi SSW 5.8 mph - N/A   Scattered Clouds
4:52 PM 77.0 °F 37.9 °F 24% 29.91 in 10.0 mi Variable 3.5 mph - N/A   Scattered Clouds
5:52 PM 77.0 °F 37.0 °F 24% 29.91 in 10.0 mi Calm Calm - N/A   Scattered Clouds
6:52 PM 75.0 °F 37.9 °F 26% 29.92 in 10.0 mi South 9.2 mph - N/A   Scattered Clouds
7:52 PM 73.0 °F 39.9 °F 30% 29.95 in 10.0 mi East 9.2 mph 17.3 mph N/A   Scattered Clouds
8:52 PM 69.1 °F 45.0 °F 42% 29.99 in 10.0 mi East 12.7 mph - N/A   Scattered Clouds
9:52 PM 68.0 °F 44.1 °F 42% 29.99 in 10.0 mi East 10.4 mph - N/A   Scattered Clouds
10:52 PM 66.0 °F 43.0 °F 43% 29.99 in 10.0 mi East 4.6 mph - N/A   Scattered Clouds
11:52 PM 66.9 °F 44.1 °F 44% 29.99 in 10.0 mi East 12.7 mph 21.9 mph N/A   Partly Cloudy